Kankakee, IL

8:49 PM CDT on March 25, 2017 (GMT -0500)
Greater Kankakee

Weather History for KIKK - June, 2013

Change the Weather History Date:

Thursday, June 13, 2013

  Actual Average Record
Temperature  
Mean Temperature 66 °F -  
Max Temperature 74 °F 82 °F 94 °F (1988)
Min Temperature 58 °F 58 °F 43 °F (1985)
Cooling Degree Days 1    
Growing Degree Days 16 (Base 50)    
Moisture  
Dew Point 57 °F    
Average Humidity 71    
Maximum Humidity 99    
Minimum Humidity 51    
Precipitation  
Precipitation 0.01 in - - ()
Sea Level Pressure  
Sea Level Pressure 29.94 in    
Wind  
Wind Speed 9 mph (NNE)    
Max Wind Speed 16 mph    
Max Gust Speed 21 mph    
Visibility 10 miles    
Events      
Averages and records for this station are not official NWS values.
T = Trace of Precipitation, MM = Missing Value Source: NWS Daily Summary

Daily Weather History Graph

Daily Weather History Graph

Search for Another Location

Airport or City:

Trip Planner

Search our weather history database for the weather conditions in past years. The results will help you decide how hot, cold, wet, or windy it might be!

Date:

Astronomy

Jun. 13, 2013 Rise Set
Actual Time 5:18 AM CDT 8:24 PM CDT
Civil Twilight 4:44 AM CDT 8:58 PM CDT
Nautical Twilight 4:01 AM CDT 9:41 PM CDT
Astronomical Twilight 3:11 AM CDT 10:32 PM CDT
Moon 9:56 AM CDT (6/13) 11:28 PM CDT (6/13)
Length of Visible Light 16h 13m
Length of Day
15h 06m
Waxing Crescent, 22% of the Moon is Illuminated
Jun 13
Waxing Crescent
Jun 16
First Quarter
Jun 23
Full
Jun 29
Last Quarter
Jul 8
New

Hourly Weather History & Observations

Time (CDT) Temp. Dew Point Humidity Pressure Visibility Wind Dir Wind Speed Gust Speed Precip Events Conditions
4:15 AM 62.8 °F 62.6 °F 99% 29.73 in - NNW 8.1 mph - N/A   Unknown
4:35 AM 63.1 °F 62.6 °F 98% 29.74 in 7.0 mi NNW 9.2 mph - 0.01 in   Light Drizzle
4:55 AM 63.3 °F 62.4 °F 97% 29.74 in 7.0 mi North 9.2 mph - 0.01 in   Overcast
5:15 AM 63.1 °F 62.2 °F 97% 29.76 in 10.0 mi North 12.7 mph 18.4 mph N/A   Overcast
5:35 AM 62.8 °F 61.9 °F 97% 29.77 in 7.0 mi North 10.4 mph 17.3 mph N/A   Overcast
5:55 AM 62.6 °F 61.9 °F 97% 29.77 in 3.0 mi North 8.1 mph 16.1 mph N/A   Overcast
6:15 AM 62.8 °F 62.1 °F 97% 29.79 in 2.5 mi NNW 6.9 mph - N/A   Overcast
6:35 AM 63.1 °F 60.6 °F 91% 29.79 in 7.0 mi NNW 10.4 mph 16.1 mph N/A   Scattered Clouds
6:55 AM 63.1 °F 58.3 °F 84% 29.80 in 10.0 mi North 10.4 mph 17.3 mph N/A   Clear
7:15 AM 63.7 °F 58.8 °F 84% 29.82 in 10.0 mi North 11.5 mph 20.7 mph N/A   Scattered Clouds
7:35 AM 63.0 °F 59.0 °F 87% 29.83 in 10.0 mi North 11.5 mph 17.3 mph N/A   Overcast
7:55 AM 63.7 °F 59.2 °F 85% 29.84 in 10.0 mi North 6.9 mph - N/A   Mostly Cloudy
8:15 AM 64.6 °F 59.4 °F 83% 29.86 in 10.0 mi North 12.7 mph 19.6 mph N/A   Scattered Clouds
8:35 AM 66.2 °F 59.2 °F 78% 29.87 in 10.0 mi North 11.5 mph 17.3 mph N/A   Clear
8:55 AM 66.9 °F 59.2 °F 76% 29.89 in 10.0 mi North 11.5 mph 18.4 mph N/A   Clear
9:15 AM 68.0 °F 59.2 °F 73% 29.89 in 10.0 mi North 10.4 mph - N/A   Clear
9:35 AM 68.9 °F 59.2 °F 71% 29.89 in 10.0 mi North 10.4 mph 19.6 mph N/A   Clear
9:55 AM 69.8 °F 60.3 °F 72% 29.90 in 10.0 mi North 12.7 mph 17.3 mph N/A   Clear
10:15 AM 70.0 °F 60.4 °F 72% 29.91 in 10.0 mi North 6.9 mph 17.3 mph N/A   Clear
10:35 AM 70.7 °F 59.4 °F 67% 29.92 in 10.0 mi NNE 11.5 mph 17.3 mph N/A   Clear
10:55 AM 71.6 °F 60.3 °F 67% 29.92 in 10.0 mi North 4.6 mph - N/A   Scattered Clouds
11:15 AM 72.1 °F 59.4 °F 64% 29.93 in 10.0 mi North 11.5 mph 17.3 mph N/A   Scattered Clouds
11:35 AM 72.5 °F 59.2 °F 63% 29.95 in 10.0 mi NNW 8.1 mph - N/A   Scattered Clouds
11:55 AM 72.5 °F 56.7 °F 57% 29.95 in 10.0 mi North 11.5 mph 17.3 mph N/A   Scattered Clouds
12:15 PM 72.7 °F 54.0 °F 52% 29.96 in 10.0 mi North 9.2 mph 18.4 mph N/A   Clear
12:35 PM 72.5 °F 54.3 °F 53% 29.96 in 10.0 mi NNE 10.4 mph - N/A   Clear
12:55 PM 73.2 °F 54.7 °F 52% 29.97 in 10.0 mi North 11.5 mph 17.3 mph N/A   Clear
1:15 PM 73.4 °F 55.6 °F 54% 29.97 in 10.0 mi North 8.1 mph - N/A   Clear
1:35 PM 73.6 °F 55.6 °F 53% 29.97 in 10.0 mi North 9.2 mph 16.1 mph N/A   Scattered Clouds
1:55 PM 73.6 °F 54.3 °F 51% 29.97 in 10.0 mi North 13.8 mph 18.4 mph N/A   Scattered Clouds
2:15 PM 73.4 °F 55.2 °F 53% 29.98 in 10.0 mi North 11.5 mph 20.7 mph N/A   Clear
2:35 PM 74.3 °F 55.8 °F 52% 29.99 in 10.0 mi North 11.5 mph 16.1 mph N/A   Scattered Clouds
2:55 PM 74.1 °F 55.9 °F 53% 29.99 in 10.0 mi NE 10.4 mph 17.3 mph N/A   Clear
3:15 PM 73.8 °F 54.7 °F 51% 29.99 in 10.0 mi NNE 12.7 mph - N/A   Clear
3:35 PM 73.9 °F 56.7 °F 55% 29.99 in 10.0 mi NNE 10.4 mph 16.1 mph N/A   Clear
3:55 PM 73.4 °F 57.2 °F 57% 29.99 in 10.0 mi NE 9.2 mph - N/A   Clear
4:15 PM 72.5 °F 58.6 °F 62% 29.99 in 10.0 mi NE 12.7 mph - N/A   Clear
4:35 PM 71.2 °F 57.4 °F 61% 29.99 in 10.0 mi NE 16.1 mph - N/A   Clear
4:55 PM 70.7 °F 56.3 °F 60% 29.99 in 10.0 mi NNE 11.5 mph - N/A   Clear
5:15 PM 69.8 °F 56.3 °F 62% 29.99 in 10.0 mi NE 10.4 mph - N/A   Clear
5:35 PM 69.8 °F 56.7 °F 63% 29.99 in 10.0 mi NE 11.5 mph - N/A   Clear
5:55 PM 69.4 °F 55.6 °F 61% 29.99 in 10.0 mi NE 11.5 mph 16.1 mph N/A   Clear
6:15 PM 68.7 °F 55.9 °F 64% 30.00 in 10.0 mi NE 10.4 mph - N/A   Clear
6:35 PM 68.0 °F 55.8 °F 65% 30.00 in 10.0 mi NNE 10.4 mph - N/A   Clear
6:55 PM 67.5 °F 55.2 °F 65% 30.00 in 10.0 mi NNE 6.9 mph - N/A   Clear
7:15 PM 67.1 °F 54.9 °F 65% 30.01 in 10.0 mi NE 6.9 mph - N/A   Clear
7:35 PM 66.4 °F 54.5 °F 66% 30.02 in 10.0 mi NNE 6.9 mph - N/A   Clear
7:55 PM 64.8 °F 55.6 °F 72% 30.03 in 10.0 mi NE 6.9 mph - N/A   Clear
8:15 PM 63.5 °F 54.9 °F 73% 30.03 in 10.0 mi ENE 4.6 mph - N/A   Clear
8:35 PM 62.6 °F 54.9 °F 76% 30.04 in 10.0 mi NE 4.6 mph - N/A   Clear
8:55 PM 62.4 °F 54.0 °F 74% 30.04 in 10.0 mi NNE 6.9 mph - N/A   Clear
9:15 PM 61.5 °F 53.8 °F 76% 30.05 in 10.0 mi NNE 5.8 mph - N/A   Clear
9:35 PM 61.2 °F 52.9 °F 74% 30.05 in 10.0 mi NNE 6.9 mph - N/A   Scattered Clouds
9:55 PM 60.4 °F 52.5 °F 75% 30.06 in 10.0 mi NNE 8.1 mph - N/A   Scattered Clouds
10:15 PM 59.9 °F 52.7 °F 77% 30.06 in 10.0 mi NNE 5.8 mph - N/A   Scattered Clouds
10:35 PM 59.0 °F 52.9 °F 80% 30.05 in 10.0 mi NNE 6.9 mph - N/A   Clear
10:55 PM 58.6 °F 52.7 °F 81% 30.04 in 10.0 mi NE 4.6 mph - N/A   Clear
11:15 PM 58.3 °F 52.7 °F 82% 30.04 in 10.0 mi NNE 4.6 mph - N/A   Clear
11:35 PM 58.3 °F 52.3 °F 81% 30.04 in 10.0 mi NNE 5.8 mph - N/A   Clear
11:55 PM 58.1 °F 52.0 °F 80% 30.04 in 10.0 mi NNE 9.2 mph - N/A   Clear